{"data":{"norad_id":63060,"epoch":"2026-09-21T17:46:00.937632Z","epoch_age_seconds":58435,"freshness":"FRESH","line1":"1 63060U 25035J   26264.74028863  .00218170  00000+0  16549-2 0  9993","line2":"2 63060  42.9990 273.6914 0000932 288.4757  71.6009 15.70906716 92058","mean_motion":15.70906716,"eccentricity":9.32e-5,"inclination_deg":42.999,"raan_deg":273.6914,"arg_perigee_deg":288.4757,"mean_anomaly_deg":71.6009,"bstar":0.0016549,"rev_number":9205,"period_min":91.666805249052,"perigee_km":355.67673156641,"apogee_km":356.93203143992,"semimajor_km":6734.4413815032,"source":"CELESTRAK","updated_at":"2026-09-22T09:00:49.751748Z"}}